Voltar ao catálogo

FENGYUN 1C DEB

AtivoPO
NORAD 36645·DEBRIS·🇨🇳 China

Lançado May 10, 1999 de Taiyuan Satellite Launch Center

Loading…

Próximas Passagens (próximas 24 horas)

TLE

AtualizadoSource: Space-Track

Época: Sep 13, 2026, 06:30 UTC

1 36645U 99025DXP 26256.27111426  .00000828  00000-0  88027-3 0  9990
2 36645  98.5140  11.7368 0291780  43.5244 318.8530 13.59516171612767

Acompanhe FENGYUN 1C DEB em tempo real com AllMySat

Download on the App Store